User: anonymous   Login
Location: Unspecified
(0.0000°N, 0.0000°E)
Time: 15:07:00
(UTC+00:00)
Language:

SATHYABAMASAT - Orbit

View from above orbital plane
View from above orbital plane
View from above satellite
View from above satellite

Ground track
Ground track

The orbit data is extracted from the following two-line orbital elements,

1 41600U 16040B   21331.14185940  .00003966  00000-0  14952-3 0  9992
2 41600  97.2523  23.9348 0013996 118.1509 242.1146 15.27541075301970
Epoch (UTC): 27 November 2021 03:24:16
Eccentricity: 0.0013996
inclination: 97.2523°
perigee height: 473 km
apogee height: 493 km
right ascension of ascending node: 23.9348°
argument of perigee: 118.1509°
revolutions per day: 15.27541075
mean anomaly at epoch: 242.1146°
orbit number at epoch: 30197

The dashed part of the orbit path shows where the satellite is in the earth's shadow,  

DLR